ACA854 EGLL-CYYZ

Flight info

Callsign ACA854
Flight time N/A
Altitude 36000
Route CPT L9 BUCGO DCT FELCA DCT OFSOX DCT BANBA DCT TOBOR DCT ELSIR/N0473F380 N412A MIILS DCT VILRO DCT SAVEX Q806 TUKIR RAGID6
Aircraft B77W/H-SDE1E2E3FGHIJ2J3J4J5M1RWXY/LB1D1

Departure

Time 2026-05-06 21:51
Airport London Heathrow Airport (EGLL)

Arrival

Time N/A
Airport Toronto Pearson International Airport (CYYZ)
Time Latitude Longitude Altitude Speed Heading
2026-05-06 21:34 51.46900 -0.44554 83 ft 2 kts 165°
2026-05-06 21:35 51.46911 -0.44557 83 ft 1 kts 177°
2026-05-06 21:35 51.46915 -0.44557 83 ft 0 kts 180°
2026-05-06 21:39 51.46914 -0.44557 83 ft 0 kts 179°
2026-05-06 21:39 51.46896 -0.44556 83 ft 5 kts 178°
2026-05-06 21:39 51.46833 -0.44554 83 ft 11 kts 179°
2026-05-06 21:39 51.46756 -0.44553 83 ft 10 kts 180°
2026-05-06 21:40 51.46676 -0.44587 83 ft 14 kts 238°
2026-05-06 21:40 51.46663 -0.44772 83 ft 19 kts 269°
2026-05-06 21:40 51.46664 -0.45018 83 ft 23 kts 269°
2026-05-06 21:40 51.46662 -0.45303 83 ft 27 kts 269°
2026-05-06 21:41 51.46661 -0.45594 83 ft 25 kts 269°
2026-05-06 21:41 51.46660 -0.45848 83 ft 21 kts 269°
2026-05-06 21:41 51.46658 -0.46071 83 ft 19 kts 269°
2026-05-06 21:41 51.46657 -0.46279 83 ft 17 kts 269°
2026-05-06 21:42 51.46656 -0.46467 83 ft 16 kts 269°
2026-05-06 21:42 51.46656 -0.46640 83 ft 15 kts 269°
2026-05-06 21:42 51.46656 -0.46801 83 ft 13 kts 269°
2026-05-06 21:42 51.46655 -0.46949 83 ft 12 kts 269°
2026-05-06 21:43 51.46656 -0.47090 83 ft 12 kts 269°
2026-05-06 21:43 51.46655 -0.47233 83 ft 13 kts 269°
2026-05-06 21:43 51.46654 -0.47385 83 ft 13 kts 269°
2026-05-06 21:43 51.46653 -0.47538 83 ft 14 kts 269°
2026-05-06 21:44 51.46653 -0.47699 83 ft 14 kts 269°
2026-05-06 21:44 51.46652 -0.47866 83 ft 15 kts 269°
2026-05-06 21:44 51.46650 -0.48036 83 ft 15 kts 269°
2026-05-06 21:44 51.46652 -0.48213 83 ft 15 kts 266°
2026-05-06 21:45 51.46652 -0.48389 83 ft 15 kts 271°
2026-05-06 21:45 51.46650 -0.48567 83 ft 16 kts 268°
2026-05-06 21:45 51.46639 -0.48726 83 ft 11 kts 234°
2026-05-06 21:45 51.46617 -0.48756 83 ft 0 kts 209°
2026-05-06 21:49 51.46602 -0.48767 83 ft 6 kts 201°
2026-05-06 21:49 51.46531 -0.48787 83 ft 14 kts 169°
2026-05-06 21:49 51.46478 -0.48635 83 ft 18 kts 91°
2026-05-06 21:49 51.46477 -0.48559 83 ft 0 kts 88°
2026-05-06 21:50 51.46478 -0.48512 83 ft 14 kts 88°
2026-05-06 21:50 51.46480 -0.47978 83 ft 94 kts 90°
2026-05-06 21:50 51.46473 -0.46426 91 ft 181 kts 88°
2026-05-06 21:51 51.46490 -0.44219 584 ft 223 kts 87°
2026-05-06 21:51 51.46530 -0.41896 2149 ft 215 kts 88°
2026-05-06 21:51 51.46485 -0.39464 2772 ft 234 kts 94°
2026-05-06 21:51 51.45955 -0.37018 3337 ft 255 kts 123°
2026-05-06 21:52 51.44605 -0.35240 4163 ft 265 kts 157°
2026-05-06 21:52 51.42901 -0.34900 5041 ft 270 kts 189°
2026-05-06 21:52 51.41225 -0.36123 5773 ft 276 kts 221°
2026-05-06 21:52 51.40042 -0.38504 5995 ft 278 kts 246°
2026-05-06 21:53 51.39679 -0.41464 6018 ft 274 kts 273°
2026-05-06 21:53 51.39924 -0.44505 6024 ft 273 kts 282°
2026-05-06 21:53 51.40311 -0.47464 6027 ft 272 kts 283°
2026-05-06 21:53 51.40693 -0.50422 6304 ft 272 kts 283°
2026-05-06 21:54 51.41068 -0.53414 6684 ft 274 kts 282°
2026-05-06 21:54 51.41437 -0.56402 7065 ft 275 kts 282°
2026-05-06 21:54 51.41801 -0.59366 7441 ft 275 kts 283°
2026-05-06 21:54 51.42168 -0.62369 7821 ft 277 kts 282°
2026-05-06 21:55 51.42537 -0.65388 8203 ft 278 kts 282°
2026-05-06 21:55 51.42907 -0.68420 8593 ft 279 kts 282°
2026-05-06 21:55 51.43275 -0.71450 9083 ft 281 kts 282°
2026-05-06 21:55 51.43646 -0.74504 9588 ft 282 kts 282°
2026-05-06 21:56 51.44021 -0.77583 10098 ft 284 kts 282°
2026-05-06 21:56 51.44408 -0.80739 10623 ft 298 kts 282°
2026-05-06 21:56 51.44821 -0.84113 11174 ft 315 kts 282°
2026-05-06 21:56 51.45246 -0.87601 11719 ft 332 kts 282°
2026-05-06 21:57 51.45687 -0.91345 12284 ft 347 kts 281°
2026-05-06 21:57 51.46120 -0.95143 12787 ft 353 kts 281°
2026-05-06 21:57 51.46556 -0.98982 13326 ft 356 kts 281°
2026-05-06 21:57 51.47005 -1.02925 13850 ft 359 kts 281°
2026-05-06 21:58 51.47439 -1.06751 14353 ft 361 kts 281°
2026-05-06 21:58 51.47888 -1.10712 14875 ft 364 kts 281°
2026-05-06 21:58 51.48336 -1.14659 15374 ft 366 kts 282°
2026-05-06 21:58 51.49027 -1.18615 15891 ft 368 kts 291°
2026-05-06 21:59 51.50124 -1.22266 16410 ft 370 kts 301°
2026-05-06 21:59 51.51644 -1.25640 16937 ft 372 kts 311°
2026-05-06 21:59 51.53466 -1.28573 17450 ft 374 kts 316°
2026-05-06 21:59 51.55365 -1.31418 17949 ft 377 kts 317°
2026-05-06 22:00 51.57294 -1.34317 18468 ft 380 kts 316°
2026-05-06 22:00 51.59218 -1.37252 18974 ft 383 kts 314°
2026-05-06 22:00 51.60383 -1.39363 19307 ft 386 kts 308°
2026-05-06 22:00 51.62343 -1.44226 19996 ft 389 kts 298°
2026-05-06 22:01 51.63616 -1.48030 20503 ft 392 kts 298°
2026-05-06 22:01 51.64902 -1.51900 21011 ft 394 kts 298°
2026-05-06 22:01 51.66200 -1.55811 21529 ft 397 kts 298°
2026-05-06 22:01 51.67505 -1.59745 22043 ft 400 kts 298°
2026-05-06 22:02 51.68801 -1.63664 22548 ft 402 kts 297°
2026-05-06 22:02 51.69910 -1.67804 23066 ft 405 kts 288°
2026-05-06 22:02 51.70429 -1.70639 23403 ft 407 kts 283°
2026-05-06 22:02 51.71024 -1.76645 24095 ft 412 kts 277°
2026-05-06 22:03 51.71358 -1.81261 24631 ft 415 kts 277°
2026-05-06 22:03 51.71689 -1.85895 25172 ft 419 kts 277°
2026-05-06 22:03 51.72021 -1.90558 25714 ft 423 kts 277°
2026-05-06 22:03 51.72355 -1.95257 26256 ft 425 kts 277°
2026-05-06 22:04 51.72687 -1.99963 26797 ft 429 kts 277°
2026-05-06 22:04 51.73025 -2.04768 27345 ft 433 kts 277°
2026-05-06 22:04 51.73361 -2.09575 27884 ft 438 kts 277°
2026-05-06 22:04 51.73701 -2.14481 28432 ft 441 kts 277°
2026-05-06 22:05 51.74040 -2.19382 28975 ft 445 kts 277°
2026-05-06 22:05 51.74379 -2.24305 29468 ft 450 kts 277°
2026-05-06 22:05 51.74724 -2.29360 29648 ft 462 kts 277°
2026-05-06 22:05 51.75077 -2.34563 29736 ft 476 kts 277°
2026-05-06 22:06 51.75433 -2.39842 30177 ft 482 kts 277°
2026-05-06 22:06 51.75786 -2.45132 31010 ft 479 kts 278°
2026-05-06 22:06 51.76138 -2.50434 31848 ft 473 kts 278°
2026-05-06 22:06 51.76477 -2.55577 32515 ft 471 kts 278°
2026-05-06 22:07 51.76823 -2.60855 33034 ft 471 kts 278°
2026-05-06 22:07 51.77150 -2.65879 33421 ft 473 kts 277°
2026-05-06 22:07 51.77504 -2.71350 33889 ft 474 kts 277°
2026-05-06 22:07 51.77833 -2.76488 34436 ft 471 kts 277°
2026-05-06 22:08 51.78164 -2.81670 34906 ft 470 kts 277°
2026-05-06 22:08 51.78494 -2.86897 35197 ft 470 kts 277°
2026-05-06 22:08 51.78825 -2.92173 35465 ft 470 kts 277°
2026-05-06 22:08 51.79149 -2.97350 35684 ft 471 kts 277°
2026-05-06 22:09 51.79476 -3.02634 35909 ft 472 kts 277°
2026-05-06 22:09 51.79794 -3.07801 35985 ft 473 kts 277°
2026-05-06 22:09 51.80425 -3.18181 36012 ft 472 kts 277°
2026-05-06 22:10 51.81059 -3.28778 36014 ft 473 kts 277°
2026-05-06 22:10 51.81677 -3.39258 36015 ft 473 kts 277°
2026-05-06 22:11 51.82289 -3.49805 36010 ft 472 kts 277°
2026-05-06 22:11 51.83321 -3.60207 36009 ft 473 kts 284°
2026-05-06 22:12 51.84676 -3.70570 36006 ft 471 kts 283°
2026-05-06 22:12 51.86013 -3.80899 36004 ft 473 kts 283°
2026-05-06 22:13 51.87352 -3.91341 35999 ft 475 kts 283°
2026-05-06 22:13 51.88674 -4.01752 35997 ft 475 kts 283°
2026-05-06 22:14 51.89989 -4.12193 35995 ft 476 kts 283°
2026-05-06 22:14 51.91294 -4.22643 36000 ft 476 kts 283°
2026-05-06 22:15 51.92587 -4.33073 35997 ft 475 kts 283°
2026-05-06 22:15 51.93870 -4.43503 35997 ft 477 kts 283°
2026-05-06 22:16 51.95159 -4.54072 35998 ft 478 kts 283°
2026-05-06 22:16 51.96436 -4.64620 36002 ft 478 kts 283°
2026-05-06 22:17 51.97697 -4.75130 35999 ft 478 kts 282°
2026-05-06 22:17 51.98949 -4.85700 36001 ft 479 kts 282°
2026-05-06 22:18 52.00190 -4.96192 36007 ft 479 kts 283°
2026-05-06 22:18 52.01441 -5.06838 35998 ft 479 kts 283°
2026-05-06 22:19 52.02559 -5.17443 35998 ft 481 kts 276°
2026-05-06 22:19 52.02266 -5.28338 36008 ft 485 kts 266°
2026-05-06 22:20 52.01534 -5.39154 36009 ft 484 kts 265°
2026-05-06 22:20 52.00781 -5.49927 36001 ft 484 kts 265°
2026-05-06 22:21 52.00008 -5.60777 36003 ft 484 kts 265°
2026-05-06 22:21 51.99228 -5.71551 36011 ft 484 kts 265°
2026-05-06 22:22 51.98431 -5.82391 36008 ft 484 kts 265°
2026-05-06 22:22 51.97626 -5.93185 36011 ft 484 kts 265°
2026-05-06 22:23 51.96812 -6.03980 36005 ft 487 kts 265°
2026-05-06 22:23 51.95978 -6.14868 36009 ft 486 kts 265°
2026-05-06 22:24 51.95525 -6.25751 36016 ft 488 kts 276°
2026-05-06 22:24 51.96487 -6.36775 36007 ft 499 kts 282°
2026-05-06 22:25 51.97631 -6.47950 36008 ft 505 kts 282°
2026-05-06 22:25 51.98753 -6.59188 36014 ft 505 kts 282°
2026-05-06 22:26 51.99840 -6.70286 36005 ft 506 kts 281°
2026-05-06 22:26 52.00933 -6.81608 36006 ft 506 kts 281°
2026-05-06 22:27 52.02004 -6.92841 36004 ft 506 kts 281°
2026-05-06 22:27 52.03068 -7.04147 35998 ft 507 kts 281°
2026-05-06 22:28 52.04119 -7.15430 36000 ft 507 kts 281°
2026-05-06 22:28 52.05156 -7.26695 35994 ft 507 kts 281°
2026-05-06 22:29 52.06186 -7.38005 35984 ft 508 kts 281°
2026-05-06 22:29 52.07208 -7.49363 35980 ft 507 kts 281°
2026-05-06 22:30 52.08213 -7.60655 35971 ft 508 kts 281°
2026-05-06 22:30 52.09215 -7.72035 35979 ft 509 kts 280°
2026-05-06 22:31 52.10199 -7.83329 35971 ft 507 kts 279°
2026-05-06 22:31 52.11188 -7.94827 35970 ft 509 kts 279°
2026-05-06 22:32 52.12156 -8.06221 35961 ft 507 kts 279°
2026-05-06 22:32 52.13112 -8.17591 35973 ft 507 kts 279°
2026-05-06 22:33 52.14053 -8.28919 35977 ft 508 kts 279°
2026-05-06 22:33 52.14989 -8.40332 35974 ft 508 kts 279°
2026-05-06 22:34 52.15906 -8.51651 35976 ft 508 kts 279°
2026-05-06 22:34 52.16821 -8.63082 35980 ft 509 kts 279°
2026-05-06 22:35 52.17716 -8.74408 35975 ft 507 kts 278°
2026-05-06 22:35 52.18603 -8.85768 35972 ft 508 kts 278°
2026-05-06 22:36 52.19484 -8.97204 35968 ft 507 kts 278°
2026-05-06 22:36 52.20348 -9.08556 35971 ft 508 kts 278°
2026-05-06 22:37 52.21201 -9.19926 35968 ft 507 kts 278°
2026-05-06 22:37 52.22047 -9.31332 35969 ft 508 kts 278°
2026-05-06 22:38 52.22881 -9.42749 35968 ft 506 kts 278°
2026-05-06 22:38 52.23704 -9.54152 35978 ft 507 kts 278°
2026-05-06 22:39 52.24511 -9.65505 35982 ft 506 kts 277°
2026-05-06 22:39 52.25312 -9.76919 35982 ft 507 kts 277°
2026-05-06 22:40 52.26065 -9.87824 35980 ft 506 kts 277°
2026-05-06 22:40 52.26842 -9.99200 35980 ft 506 kts 277°
2026-05-06 22:41 52.27989 -10.16326 35971 ft 506 kts 277°
2026-05-06 22:42 52.28733 -10.27643 35958 ft 505 kts 277°
2026-05-06 22:42 52.29473 -10.39074 35963 ft 504 kts 277°
2026-05-06 22:43 52.30195 -10.50403 35982 ft 504 kts 277°
2026-05-06 22:43 52.30910 -10.61786 35977 ft 504 kts 277°
2026-05-06 22:44 52.31609 -10.73086 35986 ft 504 kts 276°
2026-05-06 22:44 52.32300 -10.84455 35985 ft 505 kts 276°
2026-05-06 22:45 52.32985 -10.95902 35977 ft 502 kts 276°
2026-05-06 22:45 52.33654 -11.07260 35984 ft 501 kts 276°
2026-05-06 22:46 52.34307 -11.18532 35978 ft 504 kts 276°
2026-05-06 22:46 52.34957 -11.29946 35981 ft 503 kts 276°
2026-05-06 22:47 52.35589 -11.41251 35974 ft 504 kts 276°
2026-05-06 22:47 52.36216 -11.52647 35975 ft 504 kts 276°
2026-05-06 22:48 52.36833 -11.64073 35967 ft 503 kts 276°
2026-05-06 22:48 52.37432 -11.75385 35961 ft 504 kts 275°
2026-05-06 22:49 52.38027 -11.86802 35963 ft 502 kts 275°
2026-05-06 22:49 52.38606 -11.98136 35959 ft 503 kts 274°
2026-05-06 22:50 52.39177 -12.09540 35959 ft 502 kts 274°
2026-05-06 22:50 52.39735 -12.20894 35956 ft 502 kts 274°
2026-05-06 22:51 52.40279 -12.32179 35960 ft 501 kts 274°
2026-05-06 22:51 52.40814 -12.43510 35958 ft 501 kts 274°
2026-05-06 22:52 52.41340 -12.54883 35958 ft 500 kts 274°
2026-05-06 22:52 52.41828 -12.65683 35959 ft 501 kts 273°
2026-05-06 22:53 52.42350 -12.77434 35956 ft 499 kts 273°
2026-05-06 22:53 52.42841 -12.88769 35961 ft 500 kts 273°
2026-05-06 22:54 52.43317 -13.00004 35957 ft 499 kts 273°
2026-05-06 22:54 52.43786 -13.11335 35956 ft 498 kts 273°
2026-05-06 22:55 52.44243 -13.22624 35953 ft 498 kts 273°
2026-05-06 22:55 52.44688 -13.33892 35952 ft 497 kts 273°
2026-05-06 22:56 52.45121 -13.45131 35951 ft 496 kts 273°
2026-05-06 22:56 52.45544 -13.56365 35948 ft 495 kts 273°
2026-05-06 22:57 52.45956 -13.67635 35949 ft 496 kts 272°
2026-05-06 22:57 52.46356 -13.78849 35944 ft 495 kts 272°
2026-05-06 22:58 52.46748 -13.90130 35940 ft 494 kts 272°
2026-05-06 22:58 52.47125 -14.01293 35936 ft 495 kts 272°
2026-05-06 22:59 52.47496 -14.12581 35932 ft 494 kts 272°
2026-05-06 22:59 52.47853 -14.23788 35936 ft 495 kts 272°
2026-05-06 23:00 52.48199 -14.34982 35933 ft 492 kts 272°
2026-05-06 23:00 52.48534 -14.46147 35934 ft 493 kts 271°
2026-05-06 23:01 52.48859 -14.57354 35935 ft 492 kts 271°
2026-05-06 23:01 52.49173 -14.68553 35934 ft 491 kts 271°
2026-05-06 23:02 52.49476 -14.79707 35932 ft 491 kts 271°
2026-05-06 23:02 52.49766 -14.90819 35935 ft 492 kts 271°
2026-05-06 23:03 52.50055 -15.01983 35931 ft 490 kts 272°
2026-05-06 23:03 52.50914 -15.13046 35936 ft 491 kts 276°
2026-05-06 23:04 52.51836 -15.24080 35933 ft 490 kts 276°
2026-05-06 23:04 52.52727 -15.35180 35934 ft 490 kts 276°
2026-05-06 23:05 52.53591 -15.46258 35932 ft 489 kts 275°
2026-05-06 23:05 52.54432 -15.57272 35934 ft 490 kts 275°
2026-05-06 23:06 52.55265 -15.68357 35933 ft 488 kts 274°
2026-05-06 23:06 52.56078 -15.79361 35935 ft 488 kts 274°
2026-05-06 23:07 52.56877 -15.90341 35935 ft 488 kts 274°
2026-05-06 23:07 52.57671 -16.01395 35932 ft 487 kts 274°
2026-05-06 23:08 52.58450 -16.12394 35930 ft 487 kts 274°
2026-05-06 23:08 52.59218 -16.23382 35927 ft 485 kts 274°
2026-05-06 23:09 52.59979 -16.34426 35928 ft 487 kts 274°
2026-05-06 23:09 52.60728 -16.45453 35924 ft 486 kts 274°
2026-05-06 23:10 52.61463 -16.56426 35922 ft 485 kts 274°
2026-05-06 23:10 52.62192 -16.67464 35923 ft 485 kts 273°
2026-05-06 23:11 52.62908 -16.78457 35929 ft 485 kts 273°
2026-05-06 23:11 52.63614 -16.89468 35924 ft 486 kts 273°
2026-05-06 23:12 52.64309 -17.00467 35924 ft 484 kts 273°
2026-05-06 23:12 52.64990 -17.11399 35920 ft 486 kts 273°
2026-05-06 23:13 52.65668 -17.22454 35926 ft 484 kts 273°
2026-05-06 23:13 52.66330 -17.33433 35923 ft 484 kts 272°
2026-05-06 23:14 52.66984 -17.44431 35919 ft 483 kts 272°
2026-05-06 23:14 52.67622 -17.55349 35918 ft 482 kts 272°
2026-05-06 23:15 52.68255 -17.66336 35923 ft 482 kts 272°
2026-05-06 23:15 52.68874 -17.77263 35925 ft 481 kts 272°
2026-05-06 23:16 52.69484 -17.88235 35928 ft 481 kts 272°
2026-05-06 23:16 52.70082 -17.99156 35931 ft 480 kts 272°
2026-05-06 23:17 52.70670 -18.10086 35928 ft 480 kts 272°
2026-05-06 23:17 52.71247 -18.21001 35923 ft 480 kts 272°
2026-05-06 23:18 52.71813 -18.31912 35926 ft 481 kts 272°
2026-05-06 23:18 52.72371 -18.42845 35852 ft 481 kts 272°
2026-05-06 23:18 52.72647 -18.48313 36077 ft 479 kts 272°
2026-05-06 23:19 52.72921 -18.53814 35956 ft 478 kts 272°
2026-05-06 23:19 52.73456 -18.64713 35931 ft 479 kts 272°
2026-05-06 23:20 52.73981 -18.75598 35940 ft 478 kts 271°
2026-05-06 23:20 52.74496 -18.86498 35940 ft 477 kts 271°
2026-05-06 23:21 52.74999 -18.97337 35944 ft 479 kts 271°
2026-05-06 23:21 52.75494 -19.08241 35944 ft 477 kts 271°
2026-05-06 23:22 52.75977 -19.19094 35947 ft 477 kts 271°
2026-05-06 23:22 52.76455 -19.30071 35946 ft 478 kts 271°
2026-05-06 23:23 52.76918 -19.40909 35944 ft 477 kts 271°
2026-05-06 23:23 52.77372 -19.51798 35942 ft 478 kts 271°
2026-05-06 23:24 52.77817 -19.62691 35943 ft 476 kts 271°
2026-05-06 23:24 52.78254 -19.73656 35951 ft 475 kts 271°
2026-05-06 23:25 52.78676 -19.84500 35949 ft 476 kts 271°
2026-05-06 23:25 52.79089 -19.95333 35948 ft 475 kts 271°
2026-05-06 23:26 52.79493 -20.06221 35947 ft 477 kts 271°
2026-05-06 23:26 52.79889 -20.17178 35943 ft 477 kts 271°
2026-05-06 23:27 52.80273 -20.28058 35947 ft 478 kts 271°
2026-05-06 23:27 52.80646 -20.38928 35945 ft 476 kts 271°
2026-05-06 23:28 52.81010 -20.49795 35942 ft 476 kts 271°
2026-05-06 23:28 52.81364 -20.60694 35943 ft 476 kts 271°
2026-05-06 23:29 52.81707 -20.71565 35948 ft 476 kts 270°
2026-05-06 23:29 52.82042 -20.82495 35945 ft 476 kts 270°
2026-05-06 23:30 52.82366 -20.93366 35941 ft 475 kts 270°
2026-05-06 23:30 52.82678 -21.04212 35945 ft 476 kts 271°
2026-05-06 23:31 52.82983 -21.15131 35946 ft 476 kts 271°
2026-05-06 23:31 52.83277 -21.26009 35949 ft 475 kts 270°
2026-05-06 23:32 52.83559 -21.36833 35951 ft 477 kts 271°
2026-05-06 23:32 52.83834 -21.47746 35949 ft 478 kts 271°
2026-05-06 23:33 52.84100 -21.58715 35953 ft 477 kts 271°
2026-05-06 23:33 52.84354 -21.69634 35951 ft 477 kts 270°
2026-05-06 23:34 52.84599 -21.80564 35964 ft 477 kts 270°
2026-05-06 23:34 52.84834 -21.91513 35961 ft 478 kts 270°
2026-05-06 23:35 52.85058 -22.02415 35958 ft 477 kts 270°
2026-05-06 23:35 52.85273 -22.13351 35950 ft 477 kts 270°
2026-05-06 23:36 52.85477 -22.24260 35943 ft 478 kts 270°
2026-05-06 23:36 52.85672 -22.35223 35943 ft 479 kts 270°
2026-05-06 23:37 52.85857 -22.46200 35941 ft 480 kts 270°
2026-05-06 23:37 52.86033 -22.57245 35943 ft 481 kts 270°
2026-05-06 23:38 52.86199 -22.68269 35946 ft 481 kts 270°
2026-05-06 23:38 52.86354 -22.79318 35951 ft 482 kts 270°
2026-05-06 23:39 52.86500 -22.90359 35948 ft 482 kts 270°
2026-05-06 23:39 52.86635 -23.01386 35956 ft 482 kts 270°
2026-05-06 23:40 52.86760 -23.12423 35960 ft 483 kts 270°
2026-05-06 23:40 52.86874 -23.23432 35966 ft 482 kts 270°
2026-05-06 23:41 52.86979 -23.34514 35977 ft 483 kts 270°
2026-05-06 23:41 52.87073 -23.45572 35963 ft 483 kts 270°
2026-05-06 23:42 52.87157 -23.56674 35972 ft 484 kts 270°
2026-05-06 23:42 52.87231 -23.67792 35975 ft 485 kts 270°
2026-05-06 23:43 52.87295 -23.78927 35974 ft 485 kts 270°
2026-05-06 23:43 52.87348 -23.90012 35970 ft 485 kts 270°
2026-05-06 23:44 52.87391 -24.01157 35966 ft 485 kts 270°
2026-05-06 23:44 52.87423 -24.12278 35969 ft 484 kts 270°
2026-05-06 23:45 52.87445 -24.23385 35973 ft 485 kts 270°
2026-05-06 23:45 52.87457 -24.34491 35973 ft 485 kts 270°
2026-05-06 23:46 52.87458 -24.45630 35981 ft 485 kts 270°
2026-05-06 23:46 52.87449 -24.56840 35982 ft 486 kts 270°
2026-05-06 23:47 52.87429 -24.67971 35967 ft 487 kts 270°
2026-05-06 23:47 52.87400 -24.79131 35980 ft 487 kts 270°
2026-05-06 23:48 52.87359 -24.90265 35971 ft 488 kts 270°
2026-05-06 23:48 52.87308 -25.01470 35978 ft 488 kts 270°
2026-05-06 23:49 52.87247 -25.12632 35980 ft 487 kts 270°
2026-05-06 23:49 52.87175 -25.23792 35980 ft 487 kts 270°
2026-05-06 23:50 52.87092 -25.34971 35980 ft 488 kts 270°
2026-05-06 23:50 52.86948 -25.51774 35980 ft 489 kts 270°
2026-05-06 23:51 52.86838 -25.63067 35980 ft 490 kts 270°
2026-05-06 23:51 52.86718 -25.74254 35978 ft 490 kts 270°
2026-05-06 23:52 52.86588 -25.85498 35980 ft 490 kts 270°
2026-05-06 23:52 52.86446 -25.96758 35983 ft 491 kts 270°
2026-05-06 23:53 52.86294 -26.07991 35980 ft 491 kts 270°
2026-05-06 23:53 52.86132 -26.19242 35976 ft 491 kts 270°
2026-05-06 23:54 52.85958 -26.30522 35970 ft 491 kts 270°
2026-05-06 23:54 52.85774 -26.41720 35975 ft 492 kts 270°
2026-05-06 23:55 52.85580 -26.52986 35980 ft 493 kts 270°
2026-05-06 23:55 52.85373 -26.64294 35978 ft 493 kts 270°